Regional Weather Roundup
Issued by NWS

Home | Current Version | Previous Version | Graphics & Text | Print | Product List | Glossary On
Versions: 1 2 3 4 5 6 7 8 9 10 11 12 13 14 15 16 17 18 19 20 21 22 23 24 25 26 27 28 29 30 31 32 33 34 35 36 37 38 39 40 41 42 43 44 45 46 47 48 49 50
000
ASUS43 KLSX 251007
RWRMO

WEATHER SUMMARY FOR MISSOURI
NATIONAL WEATHER SERVICE SPRINGFIELD MO
500 AM CDT FRI JUL 25 2014

NOTE: "FAIR" INDICATES FEW OR NO CLOUDS BELOW 12,000 FEET WITH NO
       SIGNIFICANT WEATHER AND/OR OBSTRUCTIONS TO VISIBILITY.
       CURRENT SKY AND/OR WEATHER CONDITIONS ARE NOT AVAILABLE FOR
       CHILLICOTHE AND FARMINGTON.

MOZ001>031-035>038-043-044-053-054-251100-
...NORTHERN AND WESTERN MISSOURI...

CITY           SKY/WX    TMP DP  RH WIND       PRES   REMARKS
KANSAS CTY INT MOCLDY    72  62  71 S13       29.88S
KANSAS C DTWN  MOCLDY    73  61  65 S10       29.88S
LEE`S SUMMIT   MOCLDY    70  59  68 S9        29.91S
ST JOSEPH      CLOUDY    71  62  73 SE7       29.87S
CHILLICOTHE      N/A     67  56  67 SE5       29.95R
KIRKSVILLE     CLOUDY    63  55  75 S9        29.98S

$$
MOZ066>068-077>081-088>096-101>105-251100-
...SOUTHWEST MISSOURI...

CITY           SKY/WX    TMP DP  RH WIND       PRES   REMARKS
SPRINGFIELD    PTCLDY    67  58  72 S13       30.00F
JOPLIN         PTCLDY    70  66  87 S10       29.97F

$$
MOZ032>034-039>042-045>050-055>058-069>072-251100-
...CENTRAL MISSOURI...

CITY           SKY/WX    TMP DP  RH WIND       PRES   REMARKS
COLUMBIA       CLOUDY    63  56  78 SE9       30.00R
JEFFERSON CITY CLOUDY    64  55  72 E7        30.00R
ROLLA          MOCLDY    65  55  70 S9        30.01S
SEDALIA        CLOUDY    67  57  70 S9        29.95R
WHITEMAN AFB   PTCLDY    66  49  54 S8        29.93S
OSAGE BEACH    MOCLDY    64  54  68 SE6       30.00R

$$
MOZ051-052-059>065-251100-
...EAST CENTRAL MISSOURI...

CITY           SKY/WX    TMP DP  RH WIND       PRES   REMARKS
ST LOUIS INTL  MOCLDY    66  57  72 SE5       30.04R
SPIRIT OF STL  MOCLDY    58  56  93 CALM      30.03R
ST CHARLES     MOCLDY    61  57  87 CALM      30.03R

$$
MOZ072>076-082>087-097>100-106>115-251100-
...SOUTH CENTRAL AND SOUTHEAST MISSOURI...

CITY           SKY/WX    TMP DP  RH WIND       PRES   REMARKS
CAPE GIRARDEAU CLEAR     60  58  92 CALM      30.05R
FARMINGTON     CLEAR     55  54  94 CALM      30.08R
POPLAR BLUFF   CLEAR     58  56  93 CALM      30.03S
WEST PLAINS    CLEAR     63  55  75 CALM      30.06S

$$



USA.gov is the U.S. government's official web portal to all federal, state and local government web resources and services.